Location: Holbach
(51.5399°N, 10.6036°E)
Time: 03:26:27
(UTC+00:00)

ATLAS CENTAUR R/B - Pass Details

Date: 18 September 2020
Orbit: 479 x 667 km, 64.7° (Epoch: 12 October)

Event Time Altitude Azimuth Distance (km) Brightness Sun altitude
Rises 19:28:33 0° 287° (WNW) 2,620 6.3 -19.3°
Reaches altitude 10° 19:31:45 10° 315° (NW) 1,704 4.9 -19.7°
Maximum altitude 19:33:39 13° 345° (NNW) 1,493 4.1 -20.0°
Drops below altitude 10° 19:35:32 10° 16° (NNE) 1,679 4.0 -20.2°
Enters shadow 19:37:33 - 37° (NE) 2,198 4.3 -20.5°
